2023/07/27 00:00:00, 0.0,24.8
2023/07/27 00:10:00, 0.0,24.9
2023/07/27 00:20:00, 0.0,24.7
2023/07/27 00:30:00, 0.0,24.7
2023/07/27 00:40:00, 0.0,24.7
2023/07/27 00:50:00, 0.0,24.6
2023/07/27 01:00:00, 0.0,24.6
2023/07/27 01:10:00, 0.0,24.7
2023/07/27 01:20:00, 0.0,24.7
2023/07/27 01:30:00, 0.0,24.5
2023/07/27 01:40:00, 0.0,24.4
2023/07/27 01:50:00, 0.0,24.5
2023/07/27 02:00:00, 0.0,24.3
2023/07/27 02:10:00, 0.0,24.0
2023/07/27 02:20:00, 0.0,24.3
2023/07/27 02:30:00, 0.0,24.3
2023/07/27 02:40:00, 0.0,24.3
2023/07/27 02:50:00, 0.0,24.4
2023/07/27 03:00:00, 0.0,24.4
2023/07/27 03:10:00, 0.0,24.3
2023/07/27 03:20:00, 0.0,24.6
2023/07/27 03:30:00, 0.0,24.3
2023/07/27 03:40:00, 0.0,24.3
2023/07/27 03:50:00, 0.0,24.0
2023/07/27 04:00:00, 0.0,24.1
2023/07/27 04:10:00, 0.0,24.3
2023/07/27 04:20:00, 0.0,24.0
2023/07/27 04:30:00, 0.0,24.0
2023/07/27 04:40:00, 0.0,24.0
2023/07/27 04:50:00, 0.0,23.9
2023/07/27 05:00:00, 0.0,23.7
2023/07/27 05:10:00, 0.0,23.5
2023/07/27 05:20:00, 0.0,23.6
2023/07/27 05:30:00, 0.0,23.7
2023/07/27 05:40:00, 0.0,23.7
2023/07/27 05:50:00, 0.0,24.0
2023/07/27 06:00:00, 0.0,24.0
2023/07/27 06:10:00, 0.0,24.1
2023/07/27 06:20:00, 0.0,24.3
2023/07/27 06:30:00, 0.0,24.5
2023/07/27 06:40:00, 0.0,24.7
2023/07/27 06:50:00, 0.0,24.9
2023/07/27 07:00:00, 0.0,25.1
2023/07/27 07:10:00, 0.1,25.9
2023/07/27 07:20:00, 0.0,26.7
2023/07/27 07:30:00, 0.1,27.6
2023/07/27 07:40:00, 0.1,27.8
2023/07/27 07:50:00, 0.1,27.8
2023/07/27 08:00:00, 0.1,28.5
2023/07/27 08:10:00, 0.2,28.3
2023/07/27 08:20:00, 0.3,29.0
2023/07/27 08:30:00, 0.3,29.4
2023/07/27 08:40:00, 0.2,29.7
2023/07/27 08:50:00, 0.4,30.0
2023/07/27 09:00:00, 0.5,30.1
2023/07/27 09:10:00, 0.6,31.2
2023/07/27 09:20:00, 0.7,30.7
2023/07/27 09:30:00, 0.8,29.8
2023/07/27 09:40:00, 0.6,29.7
2023/07/27 09:50:00, 0.5,30.0
2023/07/27 10:00:00, 0.7,30.0
2023/07/27 10:10:00, 0.7,29.8
2023/07/27 10:20:00, 0.7,29.9
2023/07/27 10:30:00, 0.9,30.3
2023/07/27 10:40:00, 0.9,29.9
2023/07/27 10:50:00, 0.9,30.2
2023/07/27 11:00:00, 0.9,30.3
2023/07/27 11:10:00, 1.1,30.4
2023/07/27 11:20:00, 1.1,30.5
2023/07/27 11:30:00,---,30.6
2023/07/27 11:40:00, 1.0,30.9
2023/07/27 11:50:00, 0.9,30.4
2023/07/27 12:00:00, 1.0,30.9
2023/07/27 12:10:00, 0.9,31.2
2023/07/27 12:20:00, 1.1,30.8
2023/07/27 12:30:00, 0.9,31.0
2023/07/27 12:40:00, 0.8,31.0
2023/07/27 12:50:00, 0.9,31.0
2023/07/27 13:00:00, 0.7,31.2
2023/07/27 13:10:00, 0.5,30.8
2023/07/27 13:20:00, 0.3,30.1
2023/07/27 13:30:00, 0.0,29.7
2023/07/27 13:40:00, 0.0,29.9
2023/07/27 13:50:00, 0.0,30.2
2023/07/27 14:00:00, 0.0,29.6
2023/07/27 14:10:00, 0.0,30.2
2023/07/27 14:20:00, 0.1,31.9
2023/07/27 14:30:00, 0.2,32.1
2023/07/27 14:40:00, 0.3,31.4
2023/07/27 14:50:00, 0.2,31.1
2023/07/27 15:00:00, 0.2,32.2
2023/07/27 15:10:00, 0.3,32.7
2023/07/27 15:20:00, 0.3,33.5
2023/07/27 15:30:00, 0.3,34.8
2023/07/27 15:40:00, 0.4,35.4
2023/07/27 15:50:00, 0.4,35.1
2023/07/27 16:00:00, 0.3,35.0
2023/07/27 16:10:00, 0.4,33.9
2023/07/27 16:20:00, 0.4,34.8
2023/07/27 16:30:00, 0.3,33.9
2023/07/27 16:40:00, 0.1,31.5
2023/07/27 16:50:00, 0.1,30.8
2023/07/27 17:00:00, 0.0,30.5
2023/07/27 17:10:00, 0.0,30.6
2023/07/27 17:20:00, 0.0,30.2
2023/07/27 17:30:00, 0.0,30.1
2023/07/27 17:40:00, 0.0,29.6
2023/07/27 17:50:00, 0.0,29.6
2023/07/27 18:00:00, 0.0,29.5
2023/07/27 18:10:00, 0.0,30.0
2023/07/27 18:20:00, 0.0,31.1
2023/07/27 18:30:00, 0.0,31.9
2023/07/27 18:40:00, 0.0,31.1
2023/07/27 18:50:00, 0.0,29.6
2023/07/27 19:00:00, 0.0,28.8
2023/07/27 19:10:00, 0.0,28.3
2023/07/27 19:20:00, 0.0,27.9
2023/07/27 19:30:00, 0.0,27.8
2023/07/27 19:40:00, 0.0,27.6
2023/07/27 19:50:00, 0.0,27.5
2023/07/27 20:00:00, 0.0,27.3
2023/07/27 20:10:00, 0.0,26.9
2023/07/27 20:20:00, 0.0,26.7
2023/07/27 20:30:00, 0.0,26.9
2023/07/27 20:40:00, 0.0,26.6
2023/07/27 20:50:00, 0.0,26.4
2023/07/27 21:00:00, 0.0,26.2
2023/07/27 21:10:00, 0.0,26.3
2023/07/27 21:20:00, 0.0,26.3
2023/07/27 21:30:00, 0.0,25.9
2023/07/27 21:40:00, 0.0,25.9
2023/07/27 21:50:00, 0.0,26.1
2023/07/27 22:00:00, 0.0,26.0
2023/07/27 22:10:00, 0.0,25.8
2023/07/27 22:20:00, 0.0,25.5
2023/07/27 22:30:00, 0.0,25.4
2023/07/27 22:40:00, 0.0,25.4
2023/07/27 22:50:00, 0.0,24.8
2023/07/27 23:00:00, 0.0,25.2
2023/07/27 23:10:00, 0.0,25.2
2023/07/27 23:20:00, 0.0,25.2
2023/07/27 23:30:00, 0.0,25.4
2023/07/27 23:40:00, 0.0,25.1
2023/07/27 23:50:00, 0.0,25.1
